Weather History for Rexburg, ID

Change the Weather History Date:

Thursday, August 28, 2014

  Actual Average Record
Temperature  
Mean Temperature 64 °F 63 °F  
Max Temperature 80 °F 80 °F 93 °F (2012)
Min Temperature 47 °F 46 °F 39 °F (2004)
Degree Days  
Heating Degree Days 1 3  
Month to date heating degree days 55 31  
Since 1 June heating degree days 218 233  
Since 1 July heating degree days 63 61  
Cooling Degree Days 0 1  
Month to date cooling degree days 55 82  
Year to date cooling degree days 221 196  
Since 1 June cooling degree days 221 192  
Growing Degree Days 13 (Base 50)    
Moisture  
Dew Point 46 °F    
Average Humidity 61    
Maximum Humidity 93    
Minimum Humidity 28    
Precipitation  
Precipitation 0.00 in 0.04 in 0.32 in (1991)
Month to date precipitation 3.80 0.84  
Year to date precipitation 10.89 8.80  
Sea Level Pressure  
Sea Level Pressure 30.05 in    
Wind  
Wind Speed 7 mph (South)    
Max Wind Speed 16 mph    
Max Gust Speed 22 mph    
Visibility 10 miles    
Events      
T = Trace of Precipitation, MM = Missing Value Source: NWS Daily Summary

Daily Weather History Graph

Daily Weather History Graph

Search for Another Location

Airport:

Trip Planner

Search our weather history database for the weather conditions in past years. The results will help you decide how hot, cold, wet, or windy it might be!

Date:

Astronomy

Aug. 28, 2014 Rise Set
Actual Time 6:46 AM MDT 8:09 PM MDT
Civil Twilight 6:16 AM MDT 8:39 PM MDT
Nautical Twilight 5:40 AM MDT 9:15 PM MDT
Astronomical Twilight 5:01 AM MDT 9:53 PM MDT
Moon 9:49 AM MDT (8/28) 9:27 PM MDT (8/28)
Length of Visible Light 14h 23m
Length of Day
13h 23m
Waxing Crescent, 9% of the Moon is Illuminated
Aug 28
Waxing Crescent
Sep 2
First Quarter
Sep 8
Full
Sep 15
Last Quarter
Sep 24
New

Hourly Weather History & Observations

Time (MDT) Temp. Dew Point Humidity Pressure Visibility Wind Dir Wind Speed Gust Speed Precip Events Conditions
12:53 AM 62.1 °F 44.1 °F 52% 30.06 in 10.0 mi South 8.1 mph - N/A   Clear
1:53 AM 55.9 °F 46.9 °F 72% 30.08 in 10.0 mi NNW 3.5 mph - N/A   Clear
2:53 AM 51.1 °F 46.0 °F 83% 30.10 in 10.0 mi NNE 4.6 mph - N/A   Clear
3:53 AM 50.0 °F 45.0 °F 83% 30.10 in 10.0 mi East 4.6 mph - N/A   Clear
4:53 AM 48.0 °F 45.0 °F 89% 30.11 in 10.0 mi NE 3.5 mph - N/A   Clear
5:53 AM 46.9 °F 44.1 °F 90% 30.13 in 10.0 mi East 3.5 mph - N/A   Clear
6:53 AM 46.9 °F 44.1 °F 90% 30.14 in 10.0 mi Calm Calm - N/A   Clear
7:53 AM 50.0 °F 45.0 °F 83% 30.15 in 10.0 mi ENE 4.6 mph - N/A   Clear
8:53 AM 57.0 °F 48.0 °F 72% 30.16 in 10.0 mi North 3.5 mph - N/A   Clear
9:53 AM 62.1 °F 48.9 °F 62% 30.15 in 10.0 mi ENE 3.5 mph - N/A   Clear
10:53 AM 69.1 °F 50.0 °F 51% 30.12 in 10.0 mi SW 5.8 mph - N/A   Clear
11:53 AM 72.0 °F 48.9 °F 44% 30.11 in 10.0 mi WSW 11.5 mph - N/A   Clear
12:53 PM 73.9 °F 48.9 °F 41% 30.08 in 10.0 mi WSW 12.7 mph - N/A   Clear
1:53 PM 75.9 °F 48.9 °F 38% 30.06 in 7.0 mi WSW 9.2 mph 17.3 mph N/A   Clear
2:53 PM 78.1 °F 48.9 °F 36% 30.04 in 10.0 mi SW 11.5 mph - N/A   Clear
3:53 PM 80.1 °F 48.0 °F 32% 30.01 in 9.0 mi SW 12.7 mph 18.4 mph N/A   Clear
4:53 PM 80.1 °F 45.0 °F 29% 29.99 in 10.0 mi SSW 10.4 mph - N/A   Clear
5:53 PM 80.1 °F 45.0 °F 29% 29.97 in 10.0 mi SSW 11.5 mph 21.9 mph N/A   Clear
6:53 PM 78.1 °F 44.1 °F 30% 29.96 in 10.0 mi SSW 11.5 mph - N/A   Clear
7:53 PM 73.0 °F 44.1 °F 35% 29.96 in 10.0 mi SSW 10.4 mph - N/A   Clear
8:53 PM 71.1 °F 43.0 °F 36% 29.96 in 10.0 mi SSW 6.9 mph - N/A   Clear
9:53 PM 70.0 °F 41.0 °F 35% 29.95 in 10.0 mi SSE 5.8 mph - N/A   Partly Cloudy
10:53 PM 68.0 °F 43.0 °F 40% 29.95 in 10.0 mi East 10.4 mph - N/A   Scattered Clouds
11:53 PM 64.0 °F 44.1 °F 48% 29.94 in 10.0 mi ENE 8.1 mph - N/A   Scattered Clouds